OneWeb SL0307

operational
NORAD ID: 49189 Int'l Des: 2021-083 Owner: ONEWEBN Country: UK Constellation: oneweb
LEOCIRCULARPOLARONEWEB_TYPE

Über OneWeb SL0307

Beschreibung wird geladen...

Live-Position

3D-Globus wird geladen...

Nächste Überflüge

Höhenverlauf

Altitude vs Time

uPlot chart will show altitude changes over time

Zweizeiliger Elementsatz

1 49189U 21083D 25355.05641895 -.00000065 00000-0 -21262-3 0 9992
2 49189 87.8967 355.6531 0001754 89.4923 270.6407 13.13470930207543
Epoch: 21. Dez. 2025 • Age: 12 hours

Aktueller Status

Höhe 1211.7 km
Geschwindigkeit 7.25 km/s
Subsatellitenpunkt 13.09°N, 112.85°W
Startdatum 14. Sept. 2021
Alter 4.2 years
Typ internet

Technische Details

Klassifizierung Payload
Masse 148.00 kg
Trockenmasse 140.00 kg
Gesamtmasse 148.00 kg
Länge 1.30 m
Durchmesser 1.00 m
Spannweite 5.00 m
Form Trapezoid+2 pan
Hersteller ONEWUS
Bus-Typ ARROW
Phasenstatus In Orbit
Besitzer/Staat ONEWEBN/UK

Große Konstellationen

Loading constellations...